Regional Weather Roundup
Issued by NWS

Home | Current Version | Previous Version | Text Only | Print | Product List | Glossary Off
Versions: 1 2 3 4 5 6 7 8 9 10 11 12 13 14 15 16 17 18 19 20 21 22 23 24 25 26 27 28 29 30 31 32 33 34 35 36 37 38 39 40 41 42 43 44 45 46 47 48 49 50

000
ASUS45 KBOU 132207
RWRCO

WEATHER ROUNDUP FOR COLORADO
NATIONAL WEATHER SERVICE DENVER/BOULDER CO
300 PM MST SAT FEB 13 2016

NOTE: "FAIR" INDICATES FEW OR NO CLOUDS BELOW 12000 FEET WITH NO
SIGNIFICANT WEATHER AND/OR OBSTRUCTIONS TO VISIBILITY.

COZ001>005-013-030-031-132300-
...NORTHWEST COLORADO...

CITY           SKY/WX    TMP DP  RH WIND       PRES   REMARKS
CRAIG          FAIR      30  22  72 SE3       30.18F
HAYDEN         FAIR      30  21  69 NE5       30.17F WCI  25
MEEKER         FAIR      41  27  57 NE3       30.16F
MOUNT WERNER   NOT AVBL
STEAMBOAT SPGS FAIR      33  24  70 CALM      30.16F
WALDEN         FAIR      36  21  55 SW23G29   30.11F
$$

COZ006>008-011-132300-
...WEST CENTRAL VALLEYS...

CITY           SKY/WX    TMP DP  RH WIND       PRES   REMARKS
GRAND JUNCTION FAIR      41  32  70 NW9       30.19F
MONTROSE       FAIR      49  27  42 CALM      30.19F
EAGLE          MOSUNNY   48  19  32 SW23G30   30.15S
RIFLE          PTSUNNY   39  25  57 E6        30.17F
DELTA          FAIR      54  34  46 SW5       30.17S
NUCLA          FAIR      54  25  32 W3        30.22F
$$

COZ017>023-064>068-132300-
...SOUTHWEST COLORADO...

CITY           SKY/WX    TMP DP  RH WIND       PRES   REMARKS
DURANGO        FAIR      50  23  34 W16       30.15F
CORTEZ         FAIR      57  28  33 W9        30.17F
PAGOSA SPRINGS FAIR      53  16  23 SW15      30.17S
TELLURIDE      NOT AVBL
WOLF CREEK PAS FAIR      34  14  44 SW21G30   30.33F WCI  22
$$

COZ009-010-012-014-032>034-037-058>063-132300-
...CENTRAL COLORADO...

CITY           SKY/WX    TMP DP  RH WIND       PRES   REMARKS
ASPEN          FAIR      46  17  31 NW9       30.16S
BUENA VISTA    FAIR      54   2  12 W29       30.09S
COPPER MTN     FAIR      34  -6  18 W35G53    30.23F HAZE    WCI  19
BERTHOUD PASS  FAIR      27  16  63 NW35G56   30.20S WCI   9
COTTONWOOD PAS FAIR      46 -18   6 W33G54    30.11S
GUNNISON       FAIR      21  14  73 SE3       30.26F
KREMMLING      CLOUDY    27  18  69 SE5       30.17F WCI  21
LEADVILLE      FAIR      39   6  25 W23G36    30.15F
MONARCH PASS   FAIR      32   7  34 W39G47    30.35F WCI  16
SALIDA         NOT AVBL
SUNLIGHT       CLOUDY    34  19  55 CALM      30.29S
WILKERSON PASS FAIR      36  -4  18 NW14G31   30.20S
$$

COZ069>075-132300-
...SAN LUIS VALLEY/SANGRE DE CRISTO MOUNTAINS...

CITY           SKY/WX    TMP DP  RH WIND       PRES   REMARKS
ALAMOSA        FAIR      60  16  18 N10       30.10F
LA VETA PASS   FAIR      46  18  31 S14G25    30.15F
SAGUACHE       FAIR      55  12  18 NW22G29   30.12F
$$

COZ035-036-038>040-132300-
...NORTHERN COLORADO FRONT RANGE...

CITY           SKY/WX    TMP DP  RH WIND       PRES   REMARKS
DENVER INTL AP PTSUNNY   62  27  26 NE5       29.93F
DMNS CITY PARK   N/A     65   8  10 N16G31    29.92S
AURORA         MOSUNNY   64  17  16 N17G25    29.94F
FRONT RANGE AP PTSUNNY   59  21  23 MISG      29.95S
ERIE MUNI ARPT FAIR      61  33  35 N9        29.94S
BOULDER MUN AP FAIR      64  14  14 NW14G24   29.93S
CENTENNIAL     PTSUNNY   63  16  16 N16       29.94S
BROOMFIELD     MOSUNNY   64  16  15 NW20G28   29.96S
FORT COLLINS   FAIR      45  36  70 CALM      29.96S
LONGMONT       FAIR      51  37  58 NW6       29.95F
$$

COZ041-046-047-076>085-087-088-132300-
...PIKES PEAK/PALMER DIVIDE AND SOUTHERN FOOTHILLS...

CITY           SKY/WX    TMP DP  RH WIND       PRES   REMARKS
COLO. SPRINGS  FAIR      65   5   9 NW23G31   29.95F
A. F. ACADEMY  FAIR      61   1   9 NW18G32   29.96S
SCHRIEVER AFB  FAIR      63   4   9 W14G32    29.96
ELLICOTT       FAIR     N/A N/A N/A SW10      29.93F
FALCON         FAIR      59   8  13 W18G30    30.00S
FORT CARSON    FAIR      67  14  13 NE10      29.91F
LIMON          FAIR      44  35  70 CALM      29.94F
MONUMENT HILL  FAIR      50  21  32 N7        30.01R
TRINIDAD       FAIR      72   9   8 NW15G26   29.96F
$$

COZ042>045-048>051-090-091-132300-
...NORTHEAST COLORADO...

CITY           SKY/WX    TMP DP  RH WIND       PRES   REMARKS
GREELEY ARPT   FAIR      39  36  87 W3        29.96S
AKRON          FAIR      44  35  70 SW9       29.91F
BURLINGTON     CLOUDY    32  29  88 S8        29.96F WCI  25
WRAY           FAIR      38  31  77 SE6       29.96F
STERLING       FAIR      43  36  75 S13       29.90F
HOLYOKE        CLOUDY    36  32  87 S8        29.95F
FORT MORGAN    FAIR      38  34  86 W9        29.93F
$$

COZ086-089-092>099-132300-
...SOUTHEAST COLORADO...

CITY           SKY/WX    TMP DP  RH WIND       PRES   REMARKS
PUEBLO         FAIR      75   3   6 W29G38    29.88F
LA JUNTA       FAIR      51  31  46 SE6       29.91F
LAMAR          FAIR      47  31  53 VRB5      29.92F
SPRINGFIELD      N/A     71  30  21 NE10      29.89F
$$



USA.gov is the U.S. government's official web portal to all federal, state and local government web resources and services.